User: anonymous   Login
Location: Newark
(48.1500°N, 13.1167°E)
Time: 02:19:33
(UTC+00:00)
Language:

BEESAT - Orbit

View from above orbital plane
View from above orbital plane
View from above satellite
View from above satellite

Ground track
Ground track

The orbit data is extracted from the following two-line orbital elements,

1 35933U 09051C   21332.01332091  .00000193  00000-0  54318-4 0  9996
2 35933  98.5818 178.8330 0005172 328.9050  31.1840 14.56669104646843
Epoch (UTC): 28 November 2021 00:19:10
Eccentricity: 0.0005172
inclination: 98.5818°
perigee height: 700 km
apogee height: 707 km
right ascension of ascending node: 178.8330°
argument of perigee: 328.9050°
revolutions per day: 14.56669104
mean anomaly at epoch: 31.1840°
orbit number at epoch: 64684

The dashed part of the orbit path shows where the satellite is in the earth's shadow,  

DLR